Terminal Aerodrome Forecast
Issued by NWS Melbourne, FL

Home | Current Version | Previous Version | Text Only | Print | Product List | Glossary On
Versions: 1 2 3 4 5 6 7 8 9 10 11 12 13 14
885
FTUS42 KMLB 122326
TAFVRB
TAF
KVRB 122326Z 1300/1324 22006KT P6SM SKC
     FM130900 28008KT P6SM FEW030 SCT250
     FM131300 31009KT P6SM FEW250
     FM131600 34014KT P6SM SKC=

USA.gov is the U.S. government's official web portal to all federal, state and local government web resources and services.